Погода в Жиганске

Погода в Жиганске : погода сейчас, прогноз погоды и архив. Всё, что Вы хотите узнать о погоде в Жиганске!

Хотите узнать прогноз погоды в Жиганске? Тогда Вам сюда: Погода в Жиганске

Поиск расширенной информации на нашем сайте:

Другие новости

Новости СМИ2

Главная страница сайта

Новости сайта

03.07.2017

Напоминаем, что на нашем специализированном сайте Метеоцентр.Азия вы можете получить высокодетализированные автоматические прогнозы погоды по пунктам России, СНГ и мира в авиационном формате (включающие направление и скорость ветра, видимость, явления погоды, количество и форму облачности, нижнюю и верхнюю границу облачности).


Погода в Жиганске - сегодня

Время (UTC), дата Ветер
(°,м/с) 
Видим.   Явления Облачность Т
(°С)
Тd
(°С)
f(%) Тe
(°С)
Pmin
(гПа)
dP
(гПа)
Po
(мм)
O2
(г/м3)
Тmin Tmax R s Состояние
почвы
12 15.04.18 150 (ЮВ) 2{10}  20000 м    10/0 средняя 
[Ac As]
+3.8 -2.4 64 +3  997.1  0.5  739  294    +5.3       
21 15.04.18 020 (С) 0500 м  сильн. снег{ливн. осадки}  ?/? 50 
-1.5 -1.5 100 -4  998  0.5  740  300           
00 16.04.18 340 (С) 5-10{10}  1000 м  сильн. снег{ливн. осадки}  10/8 330 м средняя 
[Frnb|As op]
-2 -2.9 94 -5  999.6  1.5  741  301  -2.5      51  равномерный
сухой снег
100% 
09 16.04.18 040 (СВ) 20000 м    10/0 верхняя 
[Cs]
+0.5 -8.7 50 1003.7  0.5  744  300           
12 16.04.18 тихо ()   20000 м    10/0 верхняя 
[Ci sp]
-3.1 -7.3 73 -3  1005.4  1.5  745  304    +0.5  0.4     
15 16.04.18 320 (СЗ) 20000 м    8/0 верхняя 
[Ci sp]
-6.4 -7.6 91 -6  1005.7  0.1  745  308           
18 16.04.18 350 (С) 20000 м    4/0 верхняя 
[Ci sp]
-8.6 -8.9 98 -10  1005.6  -0.2  745  311           
21 16.04.18 020 (С) 20000 м    3/0 средняя 
[Ac trans]
-12.2 -13.5 90 -12  1006  0.2  745  316           
00 17.04.18 320 (СЗ) 20000 м    3/0 верхняя 
[Ci fib]
-2.9 -6.7 75 -2  1005.6  0.1  745  304  -13      48  равномерный
сухой снег
100% 
03 17.04.18 070 (В) 20000 м    6/0 верхняя 
[Ci fib]
+0.8 -7.7 53 +1  1005.3  -0.1  745  300           
06 17.04.18 080 (В) 20000 м    8/0 верхняя 
[Ci fib]
+1.7 -9.1 44 +1  1004.9  -0.4  745  299           
09 17.04.18 080 (В) 20000 м    6/1 1500 м верхняя 
[Cu hum|Ci fib]
+2.5 -9.8 40 +3  1004.7  -0.2  745  298           
15 17.04.18 060 (СВ) 20000 м    10/8 1500 м средняя 
[Sc|Ac und]
-6.7 -12.8 62 -6  1004.5  -0.1  744  309           
18 17.04.18 130 (ЮВ) 20000 м    8/5 1500 м верхняя 
[Sc|Ci sp]
-7.6 -12.6 67 -7  1004.3  -0.1  744  310           
21 17.04.18 080 (В) 20000 м    5/5 1500 м 
[Sc]
-8.9 -12.7 74 -9  1004.2  -0.1  744  311           
00 18.04.18 110 (В) 20000 м    1/0 средняя 
[Ac trans]
-3.7 -11.3 56 -5  1004.4  0.3  745  305  -10.2      45  равномерный
мокрый или
старый снег
100% 
03 18.04.18 150 (ЮВ) 20000 м    ясно 
+1.3 -10.9 40 +1  1004.1  -0.1  744  300           
06 18.04.18 140 (ЮВ) 20000 м    1/0 верхняя 
[Ci fib]
+3.6 -9.9 37 +2  1002.9  -1.1  744  297           
09 18.04.18 150 (ЮВ) 20000 м    6/0 верхняя 
[Ci fib]
+3.7 -9.2 38 +2  1001.9  -1  743  296           
12 18.04.18 120 (ЮВ) 20000 м    10/0 средняя, верхняя 
[Ac trans|Cs]
-1.4 -11.4 46 -1  1002.4  0.3  743  302    +3.7       
15 18.04.18 100 (В) 20000 м    10/0 средняя, верхняя 
[Ac trans|Cs]
-2 -11 50 -3  1001.4  -1  742  302           
18 18.04.18 060 (СВ) 20000 м    10/0 средняя, верхняя 
[Ac trans|Cs]
-2.3 -10.5 53 -2  1000.1  -1.3  741  302           
21 18.04.18 060 (СВ) 20000 м    10/6 660 м средняя 
[Sc|Ac und]
-0.9 -9.6 52 -2  997.9  -2.1  740  300           
00 19.04.18 130 (ЮВ) 20000 м    10/4 600 м средняя 
[Sc|Ac und]
+1.9 -8.8 45 995.6  -2.1  738  296  -3.2      44  равномерный
сухой снег
100% 
15 19.04.18 200 (Ю) 20000 м    10/6 1050 м верхняя 
[Sc|Ci sp]
-1.9 -5 79 -4  1005.7  1.5  746  303           
Время (UTC), дата Ветер
(°,м/с) 
Видим.   Явления Облачность Т
(°С)
Тd
(°С)
f(%) Тe
(°С)
Pmin
(гПа)
dP
(гПа)
Po
(мм)
O2
(г/м3)
Тmin Tmax R s Состояние
почвы

Для получения пояснительной информации подведите курсор к названию столбца.

ПОГОДА в Жиганске - архив

Всё, что Вы хотите узнать о погоде в Жиганске - удобно и подробно!

Выберите нужную дату (начиная с 1 января 2015* года) и нажмите кнопку "Найти".
Будут отображены архивные сводки погоды по пункту Жиганск, начиная с указанной даты.


Отображать данные в формате CSV (для использования в таблицах Excel)


Внимание! Наш архив погоды предназначен исключительно для личного некоммерческого использования в познавательных целях. Если Вам необходимы официальные справки о состоянии погоды (для производственных, юридических, коммерческих и т.п. целей), обращайтесь в органы Росгидромета.

*Примечание: данная дата относится к архиву по метеостанциям СССР (Россия, СНГ, Балтия).
Архив по метеостанциям Зарубежной Европы и Азии (кроме Китая) хранится 10 дней, по другим регионам земного шара (Китай, Африка, Америка, Австралия, Океания) - 1 день.

Жиганск - район местоположения метеостанции


Название, широта, долгота, высота метеостанции:
Жиганск 66.8°ш. 123.4°д. 92 м над ур. моря [Российская Федерация]

Дополнительная информация

В oтличие oт бoльшинства пoгoдных сайтoв мы публикуем пoдрoбную метеoинфoрмацию в детальнoм прoфессиoнальнoм фoрмате.

Характеристики температуры и влажнoсти вoздуха измеряются на высoте 2 м в тени вдали oт зданий и деревьев.
Скoрoсть ветра измеряется на высoте 10 м (на урoвне рoста челoвека скoрoсть ветра ниже в 1.5-2 раза). Если метеoстанция нахoдится в гoрoде или в лесу, тo скoрoсть ветра занижена на 2-4 м/с пo сравнению с oткрытым местoм. Скoрoсть ветра над акватoриями крупных рек и oзёр, а также на вершинах хoлмoв на 2-5 м/с выше, чем в oбычных услoвиях.
Атмoсфернoе давление в разных тoчках местнoсти мoжет значительнo oтличаться oт давления на метеoстанции, в зависимoсти oт услoвий рельефа (при пoдъёме на 10 м давление пoнижается примернo на 1 мм рт.ст.).